Regional Weather Roundup
Issued by NWS

Home | Current Version | Previous Version | Graphics & Text | Print | Product List | Glossary On
Versions: 1 2 3 4 5 6 7 8 9 10 11 12 13 14 15 16 17 18 19 20 21 22 23 24 25 26 27 28 29 30 31 32 33 34 35 36 37 38 39 40 41 42 43 44 45 46 47 48 49 50
000
ASUS43 KDTX 280510
RWRMI
MICHIGAN HOURLY REGIONAL WEATHER ROUNDUP
NATIONAL WEATHER SERVICE DETROIT/PONTIAC MI
100 AM EDT SAT MAY 28 2016

NOTE: "FAIR" INDICATES FEW OR NO CLOUDS BELOW 12,000 FEET WITH NO
SIGNIFICANT WEATHER AND/OR OBSTRUCTION TO VISIBILITY.

MIZ047>049-052>055-059>063-066>070-074>076-081>083-280600-
SOUTHEAST LOWER MICHIGAN

CITY           SKY/WX    TMP DP  RH WIND       PRES   REMARKS
ADRIAN         CLEAR     70  62  76 CALM      29.99R
ALMA           CLOUDY    72  64  76 CALM      29.94S
ANN ARBOR      PTCLDY    67  61  81 CALM      29.98S
BAD AXE        CLOUDY    69  62  78 CALM      29.97F
CARO           CLOUDY    74  64  71 SE7       29.95F
DETROIT CITY   PTCLDY    72  60  66 S6        29.98S
DETROIT        MOCLDY    70  62  76 SE6       29.99S
FLINT          CLOUDY    77  64  64 S8        29.96S
GROSSE ILE     CLEAR     70  64  83 S7        29.98R
HILLSDALE      PTCLDY    74  54  48 S6        29.99S
HOWELL         PTCLDY    74  64  70 SE6       29.98S

CITY           SKY/WX    TMP DP  RH WIND       PRES   REMARKS
JACKSON        CLEAR     72  63  73 S7        29.98S
LAMBERTVILLE   CLEAR     73  63  69 SW3       29.99S
LANSING        PTCLDY    74  63  68 S10       29.95S
LAPEER         FAIR      73  62  66 S7        29.98S
MASON          CLOUDY    73  63  71 S10       29.97S
MONROE         CLEAR     67  64  90 S8        29.98S
MT. CLEMENS    PTCLDY    67  63  86 SE3       29.98R
PONTIAC        CLOUDY    75  62  64 S5        29.98S
PORT HOPE        N/A     66  61  84 SE7       29.95F
PORT HURON     CLOUDY    72  63  73 SE3       29.99S
TRI CITIES     CLOUDY    78  63  59 S8        29.94S
MIDLAND        CLOUDY    73  66  79 SE6       29.93R
TROY           PTCLDY    75  60  60 CALM      30.00S
SAGINAW HB     CLOUDY    73  63  68 SE7       29.94S
$$
MIZ043>046-050>051-056>058-064>065-071>073-077>080-280600-
SOUTHWEST LOWER MICHIGAN

CITY           SKY/WX    TMP DP  RH WIND       PRES   REMARKS
BATTLE CREEK   CLOUDY    74  60  61 S8        29.97R
BENTON HARBOR  CLOUDY    71  66  84 S6        29.93S
BIG RAPIDS     CLOUDY    69  68  97 W6        29.94R
COLDWATER      CLEAR     75  58  55 S6        29.97S
FREMONT        CLOUDY    68  68 100 S6        29.93S
HOLLAND        CLOUDY    69  66  90 S3        29.93S
GRAND RAPIDS   CLOUDY    73  65  75 W6        29.94R
IONIA          FAIR      73  62  70 S5        29.93S
KALAMAZOO      CLOUDY    74  60  61 S7        29.95R
LUDINGTON      CLOUDY    70  66  88 S7        29.90R
MARSHALL       CLEAR     73  60  64 S6        29.96S
MOUNT PLEASANT CLOUDY    71  68  90 CALM      29.93F
MUSKEGON       LGT RAIN  69  63  81 S10       29.92R
SOUTH HAVEN    CLOUDY    70  67  90 S3        29.93S
$$
MIZ016>042-280600-
NORTHERN LOWER MICHIGAN

CITY           SKY/WX    TMP DP  RH WIND       PRES   REMARKS
ALPENA         MOCLDY    64  58  80 SE6       29.96S
BEAVER ISLAND  RAIN      64  63  98 E6        29.91F
BELLAIRE       LGT RAIN  67  66  95 CALM      29.93S
CADILLAC       RAIN      67  65  96 SE6       29.94F
CHARLEVOIX     LGT RAIN  66  66 100 SE7       29.95R
FRANKFORT      CLOUDY    70  67  90 S5        29.88S
GAYLORD        LGT RAIN  69  63  81 S7        29.97R
GRAYLING       HVY RAIN  68  66  92 CALM      29.99R
HARBOR SPRINGS DRIZZLE   66  65  96 CALM      29.93F
HOUGHTON LAKE  RAIN      68  66  93 CALM      29.97R FOG
MANISTEE       CLOUDY    70  64  83 SE5       29.90R
OSCODA         LGT RAIN  62  57  83 E3        29.96S
PELLSTON       LGT RAIN  66  65  96 CALM      29.94S
ROGERS CITY    LGT RAIN  65  58  78 SE8       29.96S
TRAVERSE CITY  CLOUDY    70  65  84 SE5       29.89F
$$
MIZ007>008-015-280600-
EASTERN UPPER MICHIGAN

CITY           SKY/WX    TMP DP  RH WIND       PRES   REMARKS
KINROSS          N/A     63  61  94 SE8       29.94S
MACKINAC ISLAN LGT RAIN  56  56 100 CALM      29.94R
NEWBERRY       RAIN      62  61  96 S5        29.93R
S. S. MARIE    CLOUDY    64  58  80 E6        29.94R
MUNISING         N/A     63  61  93 S6        29.87S
$$
MIZ004>006-011>014-085-280600-
CENTRAL UPPER MICHIGAN

CITY           SKY/WX    TMP DP  RH WIND       PRES   REMARKS
MANISTIQUE     LGT RAIN  60  59  97 E5        29.89F
ESCANABA       CLOUDY    61  61 100 E5        29.85F
MENOMINEE      CLOUDY    63  61  94 S7        29.85F
SAWYER-GWINN   RAIN      62  61  96 S7        29.87F
$$
MIZ001>003-009>011-084-280600-
WESTERN UPPER MICHIGAN

CITY           SKY/WX    TMP DP  RH WIND       PRES   REMARKS
IRON MOUNTAIN  LGT RAIN  63  61  93 SE7       29.84R
HOUGHTON       FOG       56  55  97 E9        29.83F VSB 1/4
COPPER HARBOR    N/A     46  46 100 CALM      29.86F
IRONWOOD       CLOUDY    59  59 100 CALM      29.76R
$$

ABBREVIATIONS USED IN REMARKS
   TC - TEMPERATURE IN CELSIUS
  WCI - WIND CHILL INDEX
   HX - HEAT INDEX
  VSB - VISIBILITY




USA.gov is the U.S. government's official web portal to all federal, state and local government web resources and services.